Tracking 30160 objects as of 13-Feb-2025
HD Live streaming from Space Station
objects crossing your sky now

TIANQI 35

Track TIANQI 35 now!
10-day predictions


NORAD ID: 62367
Int'l Code: 2024-245C
Perigee: 897.5 km
Apogee: 911.8 km
Inclination: 45.0 °
Period: 102.9 minutes
Semi major axis: 7275 km
RCS: Unknown
Launch date: December 19, 2024
Source: People's Republic of China (PRC)
Launch site: Yellow Sea Launch Area, China (YSLA)
Your satellite tracking list
Your tracking list is empty




NASA's NSSDC Master Catalog

Two Line Element Set (TLE):
1 62367U 24245C   25044.83563784  .00000355  00000-0  33280-3 0  9992
2 62367  44.9864 334.1578 0009831 227.9269 132.0728 13.98925638  7958
Source of the keplerian elements: AFSPC